Location: Rio Negrinho
(26.2394°S, 49.4999°W)
Time: 23:11:49
(UTC+00:00)

AQUARIUS - Pass Details

Date: 07 June 2020
Orbit: 651 x 652 km, 98.0° (Epoch: 10 July)

Event Time Altitude Azimuth Distance (km) Brightness Sun altitude
Rises 08:50:51 0° 18° (NNE) 2,955 8.1 -15.4°
Reaches altitude 10° 08:53:03 10° 20° (NNE) 2,052 7.3 -14.9°
Maximum altitude 08:57:30 71° 103° (ESE) 696 4.4 -14.0°
Drops below altitude 10° 09:02:01 10° 187° (S) 2,078 6.5 -13.0°
Sets 09:04:15 0° 188° (S) 2,996 7.3 -12.5°
